Terug naar catalogus

IRIDIUM 45

ActiefCommunicatiePO
NORAD 25104·PAYLOAD·🇺🇸 United States

Gelanceerd Dec 20, 1997 vanaf Vandenberg Space Force Base

Loading…

Volgende Passages (komende 24 uur)

TLE

VersSource: Space-Track

Epoch: Sep 14, 2026, 01:16 UTC

1 25104U 97082A   26257.05310437  .00037463  00000-0  67428-3 0  9996
2 25104  86.3543 183.2719 0073366  42.8943 317.8004 15.46623818521622

Volg IRIDIUM 45 in realtime met AllMySat

Download on the App Store